Find Starlink 4487

NORAD ID: 53531 Int'l Des: 2022-101 Owner: SPXS Country: US Constellation: starlink operational
LEOCIRCULAR

实时位置

正在加载3D地球...

关于 Starlink 4487

正在加载描述...

即将过境

Passes for default location (London). Set your location on the main map for personalized predictions.

高度历史

Loading altitude history...

两行轨道根数

1 53531U 22101E 26123.48280634 -.00000404 00000-0 -73124-5 0 9994
2 53531 53.2175 188.1464 0001225 86.5738 273.5394 15.08848711204430
Epoch: May 3, 2026 • Age: 10 hours

当前状态

高度 545.5 km
速度 7.60 km/s
星下点 53.37°N, 91.07°E
发射日期 Aug 19, 2022
运行时间 3.7 years
类型 internet

技术详情

分类 Payload
质量 300.00 kg
干质量 290.00 kg
总质量 300.00 kg
长度 0.20 m
直径 2.80 m
跨度 9.00 m
形状 Box + pan
制造商 SPXS
平台类型 Starlink
阶段状态 In Orbit
所有者/国家 SPXS/US

Most Searched